| time (UTC) | temp F | wind direction | speed knots | gust knots | rain 1hr in | rain 24hr in | rain mn in | humidity % | barometer mb |
| 20260831181526 | 93 | 348 | 0.0 | 4.3 | 0.00 | 0.00 | 0.00 | 48 | 1015.4 |
| 20260831180023 | 93 | 184 | 0.0 | 4.3 | 0.00 | 0.00 | 0.00 | 49 | 1015.6 |
| 20260831174519 | 93 | 195 | 0.0 | 1.7 | 0.00 | 0.00 | 0.00 | 48 | 1015.8 |
| 20260831173018 | 92 | 252 | 0.0 | 5.2 | 0.00 | 0.00 | 0.00 | 49 | 1016.0 |
| 20260831171515 | 92 | 215 | 0.0 | 0.9 | 0.00 | 0.00 | 0.00 | 49 | 1016.1 |
| 20260831170011 | 92 | 315 | 0.0 | 4.3 | 0.00 | 0.00 | 0.00 | 49 | 1016.4 |
| 20260831164515 | 91 | 192 | 0.0 | 0.9 | 0.00 | 0.00 | 0.00 | 51 | 1016.5 |
| 20260831163003 | 90 | 211 | 0.0 | 3.5 | 0.00 | 0.00 | 0.00 | 52 | 1016.6 |
| 20260831161559 | 89 | 209 | 0.0 | 1.7 | 0.00 | 0.00 | 0.00 | 52 | 1016.6 |
| 20260831160103 | 88 | 208 | 0.0 | 0.9 | 0.00 | 0.00 | 0.00 | 53 | 1016.6 |
| 20260831154555 | 87 | 251 | 0.0 | 7.0 | 0.00 | 0.00 | 0.00 | 54 | 1016.6 |
| 20260831153049 | 86 | 224 | 0.0 | 2.6 | 0.00 | 0.00 | 0.00 | 54 | 1016.7 |
| 20260831151547 | 86 | 221 | 0.0 | 5.2 | 0.00 | 0.00 | 0.00 | 54 | 1016.6 |
| 20260831150043 | 85 | 173 | 0.0 | 0.9 | 0.00 | 0.00 | 0.00 | 56 | 1016.4 |
| 20260831144549 | 84 | 216 | 0.0 | 6.1 | 0.00 | 0.00 | 0.00 | 58 | 1016.4 |
| 20260831143035 | 83 | 205 | 0.0 | 3.5 | 0.00 | 0.00 | 0.00 | 59 | 1016.2 |
| 20260831141531 | 82 | 220 | 0.0 | 0.0 | 0.00 | 0.00 | 0.00 | 60 | 1016.2 |
| 20260831140028 | 80 | 198 | 0.0 | 0.0 | 0.00 | 0.00 | 0.00 | 62 | 1016.2 |
| 20260831134525 | 79 | 223 | 0.0 | 0.0 | 0.00 | 0.00 | 0.00 | 62 | 1016.2 |
| 20260831133031 | 78 | 192 | 0.0 | 0.0 | 0.00 | 0.00 | 0.00 | 64 | 1016.1 |
| 20260831131521 | 77 | 192 | 0.0 | 0.0 | 0.00 | 0.00 | 0.00 | 65 | 1016.1 |
| 20260831130019 | 76 | 178 | 0.0 | 0.0 | 0.00 | 0.00 | 0.00 | 68 | 1016.1 |
| 20260831124520 | 75 | 178 | 0.0 | 0.0 | 0.00 | 0.00 | 0.00 | 69 | 1015.9 |
| 20260831123016 | 74 | 178 | 0.0 | 0.0 | 0.00 | 0.00 | 0.00 | 69 | 1015.7 |
| 20260831121514 | 74 | 178 | 0.0 | 0.0 | 0.00 | 0.00 | 0.00 | 69 | 1015.5 |
| 20260831120013 | 73 | 178 | 0.0 | 0.0 | 0.00 | 0.00 | 0.00 | 69 | 1015.3 |
| 20260831114512 | 73 | 178 | 0.0 | 0.0 | 0.00 | 0.00 | 0.00 | 68 | 1015.3 |
| 20260831113012 | 74 | 178 | 0.0 | 0.0 | 0.00 | 0.00 | 0.00 | 68 | 1015.3 |
| 20260831111510 | 74 | 178 | 0.0 | 0.0 | 0.00 | 0.00 | 0.00 | 68 | 1015.2 |
| 20260831110009 | 74 | 178 | 0.0 | 0.0 | 0.00 | 0.00 | 0.00 | 68 | 1015.2 |
| 20260831104517 | 74 | 178 | 0.0 | 0.0 | 0.00 | 0.00 | 0.00 | 68 | 1015.2 |
| 20260831103009 | 73 | 178 | 0.0 | 0.0 | 0.00 | 0.00 | 0.00 | 68 | 1015.2 |
| 20260831101516 | 73 | 178 | 0.0 | 0.0 | 0.00 | 0.00 | 0.00 | 70 | 1015.1 |
| 20260831100005 | 73 | 178 | 0.0 | 0.0 | 0.00 | 0.00 | 0.00 | 69 | 1015.1 |
| 20260831094504 | 74 | 178 | 0.0 | 0.0 | 0.00 | 0.00 | 0.00 | 68 | 1015.0 |
| 20260831093002 | 74 | 178 | 0.0 | 0.0 | 0.00 | 0.00 | 0.00 | 66 | 1015.1 |
| 20260831091603 | 75 | 178 | 0.0 | 0.0 | 0.00 | 0.00 | 0.00 | 65 | 1015.0 |
| 20260831090056 | 75 | 178 | 0.0 | 0.0 | 0.00 | 0.00 | 0.00 | 63 | 1014.8 |
| 20260831084557 | 76 | 178 | 0.0 | 0.0 | 0.00 | 0.00 | 0.00 | 63 | 1014.7 |
| 20260831083053 | 76 | 178 | 0.0 | 0.0 | 0.00 | 0.00 | 0.00 | 62 | 1014.6 |
| 20260831081600 | 76 | 178 | 0.0 | 0.0 | 0.00 | 0.00 | 0.00 | 62 | 1014.4 |
| 20260831080115 | 77 | 178 | 0.0 | 0.0 | 0.00 | 0.00 | 0.00 | 62 | 1014.4 |
| 20260831074551 | 77 | 178 | 0.0 | 0.0 | 0.00 | 0.00 | 0.00 | 62 | 1014.4 |
| 20260831073110 | 77 | 178 | 0.0 | 0.0 | 0.00 | 0.00 | 0.00 | 61 | 1014.5 |
| 20260831071553 | 77 | 178 | 0.0 | 0.0 | 0.00 | 0.00 | 0.00 | 61 | 1014.6 |
| 20260831070047 | 77 | 178 | 0.0 | 0.0 | 0.00 | 0.00 | 0.00 | 61 | 1014.6 |
| 20260831064547 | 77 | 178 | 0.0 | 0.0 | 0.00 | 0.00 | 0.00 | 61 | 1014.7 |
| 20260831063046 | 77 | 136 | 0.0 | 1.7 | 0.00 | 0.00 | 0.00 | 62 | 1014.8 |
| 20260831061543 | 77 | 133 | 0.0 | 0.0 | 0.00 | 0.00 | 0.00 | 63 | 1014.9 |
| 20260831060045 | 77 | 132 | 0.0 | 0.0 | 0.00 | 0.00 | 0.00 | 64 | 1014.9 |
| 20260831054548 | 77 | 132 | 0.0 | 0.0 | 0.00 | 0.00 | 0.00 | 64 | 1014.9 |
| 20260831053044 | 77 | 132 | 0.0 | 0.0 | 0.00 | 0.00 | 0.00 | 64 | 1014.8 |
| 20260831051539 | 78 | 132 | 0.0 | 0.0 | 0.00 | 0.00 | 0.00 | 63 | 1014.8 |
| 20260831050034 | 78 | 132 | 0.0 | 0.0 | 0.00 | 0.00 | 0.00 | 63 | 1014.8 |
| 20260831044545 | 79 | 132 | 0.0 | 0.0 | 0.00 | 0.00 | 0.00 | 63 | 1014.7 |
| 20260831043033 | 79 | 132 | 0.0 | 0.0 | 0.00 | 0.00 | 0.00 | 62 | 1014.7 |
| 20260831041533 | 80 | 202 | 0.0 | 1.7 | 0.00 | 0.00 | 0.00 | 61 | 1014.7 |
| 20260831040033 | 80 | 127 | 0.0 | 3.5 | 0.00 | 0.00 | 0.00 | 61 | 1014.7 |
| 20260831034532 | 81 | 192 | 0.0 | 0.0 | 0.00 | 0.00 | 0.00 | 61 | 1014.7 |
| 20260831033038 | 81 | 140 | 0.0 | 0.9 | 0.00 | 0.00 | 0.00 | 60 | 1014.5 |
| 20260831031534 | 81 | 159 | 0.0 | 0.9 | 0.00 | 0.00 | 0.00 | 60 | 1014.5 |
| 20260831030030 | 82 | 148 | 0.0 | 0.0 | 0.00 | 0.00 | 0.00 | 59 | 1014.6 |
| 20260831024531 | 82 | 136 | 0.0 | 1.7 | 0.00 | 0.00 | 0.00 | 59 | 1014.5 |
| 20260831023030 | 83 | 144 | 0.0 | 0.0 | 0.00 | 0.00 | 0.00 | 57 | 1014.5 |
| 20260831021543 | 83 | 122 | 0.0 | 1.7 | 0.00 | 0.00 | 0.00 | 57 | 1014.4 |
| 20260831020029 | 83 | 140 | 0.0 | 0.0 | 0.00 | 0.00 | 0.00 | 56 | 1014.4 |
| 20260831014528 | 84 | 142 | 0.0 | 0.9 | 0.00 | 0.00 | 0.00 | 56 | 1014.3 |
| 20260831013028 | 85 | 168 | 0.0 | 1.7 | 0.00 | 0.00 | 0.00 | 54 | 1014.1 |
| 20260831011540 | 86 | 139 | 0.0 | 0.0 | 0.00 | 0.00 | 0.00 | 53 | 1014.0 |
| 20260831010027 | 86 | 151 | 0.0 | 2.6 | 0.00 | 0.00 | 0.00 | 51 | 1013.7 |
| 20260831004527 | 87 | 154 | 0.0 | 0.9 | 0.00 | 0.00 | 0.00 | 50 | 1013.7 |
| 20260831003026 | 88 | 142 | 0.0 | 0.0 | 0.00 | 0.00 | 0.00 | 49 | 1013.6 |
| 20260831001536 | 89 | 136 | 0.0 | 0.9 | 0.00 | 0.00 | 0.00 | 48 | 1013.7 |
| 20260831000025 | 89 | 161 | 0.0 | 9.6 | 0.00 | 0.00 | 0.00 | 46 | 1013.7 |
| 20260830234527 | 90 | 172 | 0.0 | 6.1 | 0.00 | 0.00 | 0.00 | 44 | 1013.7 |
| 20260830233024 | 91 | 194 | 0.0 | 4.3 | 0.00 | 0.00 | 0.00 | 42 | 1013.9 |
| 20260830231523 | 91 | 180 | 0.0 | 12.2 | 0.00 | 0.00 | 0.00 | 41 | 1013.8 |
| 20260830230021 | 92 | 131 | 0.0 | 9.6 | 0.00 | 0.00 | 0.00 | 41 | 1013.8 |
| 20260830224521 | 93 | 167 | 0.0 | 13.0 | 0.00 | 0.00 | 0.00 | 40 | 1013.8 |
| 20260830223022 | 94 | 123 | 0.9 | 7.0 | 0.00 | 0.00 | 0.00 | 37 | 1013.7 |
| 20260830221520 | 94 | 145 | 0.0 | 2.6 | 0.00 | 0.00 | 0.00 | 37 | 1013.7 |
| 20260830220021 | 94 | 137 | 0.0 | 9.6 | 0.00 | 0.00 | 0.00 | 36 | 1013.7 |
| 20260830214518 | 94 | 148 | 0.0 | 2.6 | 0.00 | 0.00 | 0.00 | 36 | 1013.7 |
| 20260830213017 | 95 | 132 | 0.0 | 6.1 | 0.00 | 0.00 | 0.00 | 36 | 1013.9 |
| 20260830211517 | 95 | 169 | 0.0 | 2.6 | 0.00 | 0.00 | 0.00 | 35 | 1013.9 |
| 20260830210017 | 95 | 222 | 0.0 | 3.5 | 0.00 | 0.00 | 0.00 | 36 | 1014.1 |
| 20260830204527 | 95 | 195 | 0.0 | 6.1 | 0.00 | 0.00 | 0.00 | 36 | 1014.1 |
| 20260830203012 | 95 | 123 | 0.0 | 3.5 | 0.00 | 0.00 | 0.00 | 35 | 1014.1 |
| 20260830201514 | 95 | 127 | 0.0 | 5.2 | 0.00 | 0.00 | 0.00 | 37 | 1014.4 |
| 20260830200006 | 94 | 169 | 0.0 | 2.6 | 0.00 | 0.00 | 0.00 | 38 | 1014.7 |
| 20260830194505 | 94 | 161 | 0.0 | 6.1 | 0.00 | 0.00 | 0.00 | 38 | 1014.7 |
| 20260830193004 | 94 | 230 | 0.0 | 2.6 | 0.00 | 0.00 | 0.00 | 39 | 1014.9 |
| 20260830191603 | 94 | 90 | 0.0 | 5.2 | 0.00 | 0.00 | 0.00 | 37 | 1015.0 |
| 20260830190058 | 93 | 192 | 0.0 | 0.9 | 0.00 | 0.00 | 0.00 | 40 | 1015.3 |
| 20260830184557 | 93 | 210 | 0.0 | 0.9 | 0.00 | 0.00 | 0.00 | 39 | 1015.2 |
| 20260830183053 | 92 | 169 | 0.0 | 1.7 | 0.00 | 0.00 | 0.00 | 36 | 1015.4 |